Schenectady, NY (12309)

12:00 AM EDT on March 29, 2015 (GMT -0400)
Avon Crest, Niskayuna | | Change Station
CLOSE
Current Station
Personal Weather Station
Location: New York, NY
Elevation: 335 ft
Nearby Weather Stations
Active Advisory: Special Statement

Elev 335 ft 42.78 °N, 73.87 °W | Updated 18 seconds ago

Overcast
Overcast
23.6 °F
Feels Like 24 °F
N
3.0
Wind Variable Wind from West
Gusts 8.0 mph

Today
High -- | Low -- °F
--% Chance of Precip.
Yesterday
High -- | Low -- °F
Precip. -- in
6:43 AM 7:17 PM
Waxing Gibbous, 68% visible
Pressure 30.17 in
Visibility 10.0 miles
Clouds Mostly Cloudy 4800 ft
Mostly Cloudy 5500 ft
Windchill 24 °F
Dew Point 11 °F
Humidity 58%
Rainfall 0.05 in
Snow Depth Not available.
UV 0 out of 12
Pollen 2.60 out of 12
Air Quality Not available.
Flu Activity Not available.
METAR KALB 290351Z 32010G15KT 10SM BKN048 BKN055 M04/M13 A3015 RMK AO2 SLP214 MOON DMLY VSBL T10391133

More Conditions Fewer Conditions

Pressure 30.17 in
Visibility 10.0 miles
Clouds Mostly Cloudy 4800 ft
Mostly Cloudy 5500 ft
Windchill 24 °F
Dew Point 11 °F
Humidity 58%
Rainfall 0.05 in
Snow Depth Not available.
UV 0 out of 12
Pollen 2.60 out of 12
Air Quality Not available.
Flu Activity Not available.
METAR KALB 290351Z 32010G15KT 10SM BKN048 BKN055 M04/M13 A3015 RMK AO2 SLP214 MOON DMLY VSBL T10391133

More Conditions Fewer Conditions

10-Day Weather Forecast

Almanac

Astronomy

Mar. 29, 2015 Rise Set
Actual Time
Civil Twilight
Nautical Twilight
Astronomical Twilight
Moon
Length of Visible Light
Length of Day
Tomorrow will be .
, % of the Moon is Illuminated

Today's Extremes

State Highs State Lows

Community

WunderPhotos

Upload Photos

1,809,180 photos uploaded!

WunderBlogs® & News

Nearby

Air Quality

  Air Quality AQ Index Pollutant
Not available.

Snow Depth

Station Depth Elevation

Earthquake Activity

City Distance Mag. Time & Date
Minimum magnitude displayed is 2.5.

Coastal Water Temperatures

Place Temperature

Stations

Nearby Weather Stations

Station Location Temp. Windchill Dew Point Humidity Wind Precip. Elev Updated Type
                   
Special Statement
Statement as of 8:00 PM EDT on March 28, 2015

... Areas of black ice possible overnight...

Snow showers will gradually taper off this evening. Much of the
snow which occurred today melted on contact with most pavement
surfaces. However... as the sun sets... lingering water from melted
snow will likely freeze up as temperatures fall well below the
freezing mark. This will create areas of black ice... especially on
untreated pavement surfaces including roadways... parking
lots... and driveways. Motorists and pedestrians are urged to use
extra caution if driving or walking this evening and overnight.